Location: Caltech
(34.1382°N, 118.1253°W)
Time: 20:47:36
(UTC-07:00)

TMSAT-1 - Visible Passes

Search period start: 18 August 2017 00:00
Search period end: 28 August 2017 00:00
Orbit: 808 x 813 km, 98.6° (Epoch: 18 August)

Date Brightness Start Highest point End Pass type
(mag) Time Alt. Az. Time Alt. Az. Time Alt. Az.
18 Aug 10.3 03:04:07 10° N 03:07:18 37° N 03:07:18 37° N visible
19 Aug 10.7 02:40:32 10° NNE 02:43:18 31° NNE 02:43:18 31° NNE visible
19 Aug 11.1 04:22:34 10° NW 04:24:27 13° NW 04:24:27 13° NW visible
20 Aug 11.2 02:17:14 10° NNE 02:19:18 22° NE 02:19:18 22° NE visible
20 Aug 10.7 03:57:42 10° NNW 04:00:27 21° NW 04:00:27 21° NW visible
21 Aug 11.7 01:54:21 10° NE 01:55:19 14° NE 01:55:19 14° NE visible
21 Aug 10.5 03:33:28 10° N 03:36:27 29° NNW 03:36:27 29° NNW visible
22 Aug 10.5 03:09:34 10° N 03:12:27 33° N 03:12:27 33° N visible
23 Aug 10.8 02:45:56 10° NNE 02:48:28 29° NNE 02:48:28 29° NNE visible
23 Aug 11.2 04:28:32 10° NW 04:29:36 12° NW 04:29:36 12° NW visible
24 Aug 11.3 02:22:34 10° NNE 02:24:28 21° NE 02:24:28 21° NE visible
24 Aug 10.9 04:03:20 10° NNW 04:05:36 18° NW 04:05:36 18° NW visible
25 Aug 11.8 01:59:33 10° NE 02:00:28 14° NE 02:00:28 14° NE visible
25 Aug 10.7 03:39:01 10° N 03:41:36 25° NNW 03:41:36 25° NNW visible
26 Aug 10.7 03:15:03 10° N 03:17:36 28° N 03:17:36 28° N visible
27 Aug 11.0 02:51:21 10° NNE 02:53:36 26° NNE 02:53:36 26° NNE visible
